Starlink 11075

operational
NORAD ID: 58706 Int'l Des: 2024-002 Owner: SPXS Country: US Constellation: starlink
LEOCIRCULAR

关于 Starlink 11075

正在加载描述...

实时位置

正在加载3D地球...

即将过境

高度历史

Altitude vs Time

uPlot chart will show altitude changes over time

两行轨道根数

1 58706U 24002B 25257.68866488 .00002572 00000-0 26087-4 0 9992
2 58706 53.1601 61.7036 0000883 90.1904 269.9215 15.69698636 98795
Epoch: Sep 14, 2025 • Age: 29 hours

当前状态

高度 367.3 km
速度 7.69 km/s
星下点 -24.88°S, 79.05°E
发射日期 Jan 3, 2024
运行时间 1.7 years
类型 internet

技术详情

分类 Payload
质量 960.00 kg
干质量 910.00 kg
总质量 960.00 kg
长度 0.30 m
直径 4.10 m
跨度 29.00 m
形状 Box + pan
制造商 SPXS
平台类型 Starlink V2MD
阶段状态 In Orbit
所有者/国家 SPXS/US

大型星座

Loading constellations...